Location: Dob?e?
(49.9411°N, 15.1496°E)
Time: 08:01:06
(UTC+00:00)

STARLINK-60 - Pass Details

Date: 07 June 2020
Orbit: 383 x 390 km, 53.0° (Epoch: 07 July)

Event Time Altitude Azimuth Distance (km) Brightness Sun altitude
Rises 00:32:28 0° 291° (WNW) 2,276 6.8 -14.3°
Reaches altitude 10° 00:34:33 10° 286° (WNW) 1,422 5.7 -14.2°
Maximum altitude 00:37:38 49° 211° (SSW) 514 3.0 -14.0°
Drops below altitude 10° 00:40:44 10° 135° (SE) 1,425 5.5 -13.8°
Sets 00:42:49 0° 129° (SE) 2,281 6.6 -13.7°
